| time (UTC) | temp F | wind direction | speed MPH | gust MPH | rain 1hr in | rain 24hr in | rain mn in | humidity % | barometer mb |
| 20260901021559 | 64 | 0 | 0.0 | 0.0 | 0.00 | 0.00 | 0.00 | 40 | 1022.0 |
| 20260901020115 | 64 | 0 | 0.0 | 0.0 | 0.00 | 0.00 | 0.00 | 43 | 1021.9 |
| 20260901014604 | 65 | 0 | 0.0 | 3.0 | 0.00 | 0.00 | 0.00 | 43 | 1021.8 |
| 20260901013101 | 65 | 158 | 0.0 | 2.0 | 0.00 | 0.00 | 0.00 | 46 | 1022.0 |
| 20260901011557 | 66 | 0 | 0.0 | 3.0 | 0.00 | 0.00 | 0.00 | 48 | 1022.0 |
| 20260901010104 | 66 | 126 | 0.0 | 6.0 | 0.00 | 0.00 | 0.00 | 53 | 1022.2 |
| 20260901004608 | 67 | 0 | 1.0 | 5.0 | 0.00 | 0.00 | 0.00 | 56 | 1022.2 |
| 20260901003104 | 67 | 0 | 1.0 | 8.0 | 0.00 | 0.00 | 0.00 | 58 | 1022.2 |
| 20260901001602 | 67 | 150 | 5.0 | 10.0 | 0.00 | 0.00 | 0.00 | 60 | 1022.5 |
| 20260901000114 | 68 | 131 | 5.0 | 10.0 | 0.00 | 0.00 | 0.00 | 59 | 1022.5 |
| 20260831234606 | 70 | 168 | 1.0 | 10.0 | 0.00 | 0.00 | 0.00 | 58 | 1022.3 |
| 20260831233102 | 71 | 186 | 2.0 | 9.0 | 0.00 | 0.00 | 0.00 | 57 | 1022.4 |
| 20260831231559 | 71 | 196 | 2.0 | 8.0 | 0.00 | 0.00 | 0.00 | 57 | 1022.5 |
| 20260831230100 | 72 | 126 | 4.0 | 10.0 | 0.00 | 0.00 | 0.00 | 56 | 1022.6 |
| 20260831224557 | 72 | 179 | 4.0 | 12.0 | 0.00 | 0.00 | 0.00 | 56 | 1022.6 |
| 20260831223101 | 74 | 0 | 3.0 | 11.0 | 0.00 | 0.00 | 0.00 | 54 | 1022.7 |
| 20260831221556 | 74 | 213 | 3.0 | 11.0 | 0.00 | 0.00 | 0.00 | 55 | 1022.8 |
| 20260831220056 | 73 | 178 | 5.0 | 14.0 | 0.00 | 0.00 | 0.00 | 56 | 1022.9 |
| 20260831214602 | 75 | 150 | 2.0 | 11.0 | 0.00 | 0.00 | 0.00 | 51 | 1023.1 |
| 20260831213100 | 72 | 300 | 3.0 | 11.0 | 0.00 | 0.00 | 0.00 | 53 | 1023.1 |
| 20260831211557 | 74 | 152 | 4.0 | 13.0 | 0.00 | 0.00 | 0.00 | 48 | 1023.2 |
| 20260831210051 | 74 | 122 | 4.0 | 11.0 | 0.00 | 0.00 | 0.00 | 49 | 1023.6 |
| 20260831204556 | 76 | 127 | 3.0 | 8.0 | 0.00 | 0.00 | 0.00 | 46 | 1023.5 |
| 20260831203054 | 73 | 61 | 6.0 | 11.0 | 0.00 | 0.00 | 0.00 | 48 | 1023.5 |
| 20260831201605 | 75 | 140 | 3.0 | 9.0 | 0.00 | 0.00 | 0.00 | 45 | 1023.6 |
| 20260831200059 | 75 | 150 | 3.0 | 11.0 | 0.00 | 0.00 | 0.00 | 44 | 1023.5 |
| 20260831194638 | 74 | 178 | 4.0 | 10.0 | 0.00 | 0.00 | 0.00 | 45 | 1023.8 |
| 20260831193107 | 76 | 150 | 4.0 | 15.0 | 0.00 | 0.00 | 0.00 | 42 | 1023.7 |
| 20260831191600 | 76 | 152 | 3.0 | 9.0 | 0.00 | 0.00 | 0.00 | 45 | 1023.7 |
| 20260831190118 | 76 | 9 | 1.0 | 8.0 | 0.00 | 0.00 | 0.00 | 45 | 1023.6 |
| 20260831184609 | 76 | 276 | 3.0 | 8.0 | 0.00 | 0.00 | 0.00 | 44 | 1023.7 |
| 20260831183108 | 76 | 0 | 1.0 | 7.0 | 0.00 | 0.00 | 0.00 | 45 | 1023.8 |
| 20260831181603 | 75 | 196 | 2.0 | 10.0 | 0.00 | 0.00 | 0.00 | 45 | 1023.7 |
| 20260831180058 | 76 | 184 | 2.0 | 8.0 | 0.00 | 0.00 | 0.00 | 43 | 1023.7 |
| 20260831174604 | 75 | 183 | 1.0 | 7.0 | 0.00 | 0.00 | 0.00 | 44 | 1023.7 |
| 20260831173101 | 75 | 146 | 3.0 | 8.0 | 0.00 | 0.00 | 0.00 | 44 | 1023.6 |
| 20260831171558 | 74 | 148 | 1.0 | 9.0 | 0.00 | 0.00 | 0.00 | 44 | 1023.5 |
| 20260831170112 | 73 | 121 | 2.0 | 8.0 | 0.00 | 0.00 | 0.00 | 46 | 1023.2 |
| 20260831164609 | 73 | 152 | 3.0 | 7.0 | 0.00 | 0.00 | 0.00 | 46 | 1023.2 |
| 20260831163057 | 72 | 173 | 2.0 | 8.0 | 0.00 | 0.00 | 0.00 | 47 | 1023.0 |
| 20260831161605 | 71 | 146 | 1.0 | 6.0 | 0.00 | 0.00 | 0.00 | 48 | 1023.0 |
| 20260831160110 | 70 | 5 | 1.0 | 6.0 | 0.00 | 0.00 | 0.00 | 48 | 1022.8 |
| 20260831154706 | 69 | 306 | 1.0 | 4.0 | 0.00 | 0.00 | 0.00 | 45 | 1022.7 |
| 20260831153104 | 68 | 208 | 1.0 | 5.0 | 0.00 | 0.00 | 0.00 | 44 | 1022.7 |
| 20260831151605 | 67 | 290 | 1.0 | 4.0 | 0.00 | 0.00 | 0.00 | 43 | 1022.6 |
| 20260831150101 | 65 | 15 | 1.0 | 3.0 | 0.00 | 0.00 | 0.00 | 35 | 1022.4 |
| 20260831144558 | 64 | 0 | 0.0 | 4.0 | 0.00 | 0.00 | 0.00 | 31 | 1022.3 |
| 20260831143111 | 63 | 0 | 1.0 | 5.0 | 0.00 | 0.00 | 0.00 | 24 | 1022.2 |
| 20260831141616 | 62 | 186 | 1.0 | 3.0 | 0.00 | 0.00 | 0.00 | 23 | 1021.9 |
| 20260831140059 | 62 | 0 | 0.0 | 0.0 | 0.00 | 0.00 | 0.00 | 22 | 1021.7 |
| 20260831134608 | 62 | 351 | 1.0 | 4.0 | 0.00 | 0.00 | 0.00 | 21 | 1021.6 |
| 20260831133116 | 62 | 346 | 1.0 | 4.0 | 0.00 | 0.00 | 0.00 | 21 | 1021.4 |
| 20260831131619 | 62 | 15 | 1.0 | 5.0 | 0.00 | 0.00 | 0.00 | 21 | 1021.3 |
| 20260831130110 | 61 | 16 | 2.0 | 5.0 | 0.00 | 0.00 | 0.00 | 22 | 1021.2 |
| 20260831124613 | 61 | 15 | 1.0 | 4.0 | 0.00 | 0.00 | 0.00 | 23 | 1021.1 |
| 20260831123105 | 62 | 13 | 2.0 | 5.0 | 0.00 | 0.00 | 0.00 | 22 | 1021.3 |
| 20260831121602 | 62 | 5 | 2.0 | 5.0 | 0.00 | 0.00 | 0.00 | 22 | 1021.3 |
| 20260831120100 | 62 | 14 | 2.0 | 5.0 | 0.00 | 0.00 | 0.00 | 22 | 1021.3 |
| 20260831114558 | 62 | 46 | 1.0 | 4.0 | 0.00 | 0.00 | 0.00 | 21 | 1021.4 |
| 20260831113118 | 62 | 28 | 1.0 | 3.0 | 0.00 | 0.00 | 0.00 | 25 | 1021.3 |
| 20260831111603 | 62 | 20 | 2.0 | 4.0 | 0.00 | 0.00 | 0.00 | 21 | 1021.5 |
| 20260831110108 | 62 | 26 | 1.0 | 5.0 | 0.00 | 0.00 | 0.00 | 22 | 1021.5 |
| 20260831104554 | 63 | 33 | 2.0 | 5.0 | 0.00 | 0.00 | 0.00 | 21 | 1021.5 |
| 20260831103101 | 63 | 15 | 1.0 | 4.0 | 0.00 | 0.00 | 0.00 | 20 | 1021.6 |
| 20260831101617 | 63 | 0 | 0.0 | 0.0 | 0.00 | 0.00 | 0.00 | 21 | 1021.6 |
| 20260831100110 | 63 | 0 | 0.0 | 0.0 | 0.00 | 0.00 | 0.00 | 19 | 1021.5 |
| 20260831094606 | 64 | 0 | 0.0 | 0.0 | 0.00 | 0.00 | 0.00 | 21 | 1021.6 |
| 20260831093103 | 64 | 0 | 0.0 | 0.0 | 0.00 | 0.00 | 0.00 | 28 | 1021.6 |
| 20260831091600 | 63 | 0 | 0.0 | 0.0 | 0.00 | 0.00 | 0.00 | 30 | 1021.8 |
| 20260831090107 | 63 | 0 | 0.0 | 0.0 | 0.00 | 0.00 | 0.00 | 28 | 1021.8 |
| 20260831084556 | 64 | 0 | 0.0 | 0.0 | 0.00 | 0.00 | 0.00 | 24 | 1022.0 |
| 20260831083110 | 64 | 0 | 0.0 | 0.0 | 0.00 | 0.00 | 0.00 | 25 | 1022.0 |
| 20260831081608 | 64 | 0 | 0.0 | 0.0 | 0.00 | 0.00 | 0.00 | 19 | 1022.1 |
| 20260831080105 | 64 | 0 | 0.0 | 0.0 | 0.00 | 0.00 | 0.00 | 22 | 1022.2 |
| 20260831074605 | 64 | 0 | 0.0 | 0.0 | 0.00 | 0.00 | 0.00 | 22 | 1022.3 |
| 20260831073105 | 64 | 0 | 0.0 | 0.0 | 0.00 | 0.00 | 0.00 | 25 | 1022.4 |
| 20260831071555 | 64 | 0 | 0.0 | 0.0 | 0.00 | 0.00 | 0.00 | 25 | 1022.4 |
| 20260831070105 | 64 | 0 | 0.0 | 0.0 | 0.00 | 0.00 | 0.00 | 28 | 1022.5 |
| 20260831064559 | 64 | 0 | 0.0 | 0.0 | 0.00 | 0.00 | 0.00 | 28 | 1022.5 |
| 20260831063102 | 64 | 0 | 0.0 | 0.0 | 0.00 | 0.00 | 0.00 | 29 | 1022.6 |
| 20260831061608 | 65 | 0 | 0.0 | 0.0 | 0.00 | 0.00 | 0.00 | 30 | 1022.4 |
| 20260831060110 | 65 | 0 | 0.0 | 0.0 | 0.00 | 0.00 | 0.00 | 32 | 1022.5 |
| 20260831054558 | 65 | 0 | 0.0 | 0.0 | 0.00 | 0.00 | 0.00 | 33 | 1022.7 |
| 20260831053104 | 65 | 0 | 0.0 | 0.0 | 0.00 | 0.00 | 0.00 | 34 | 1022.6 |
| 20260831051624 | 66 | 0 | 0.0 | 0.0 | 0.00 | 0.00 | 0.00 | 36 | 1022.6 |
| 20260831050109 | 66 | 0 | 0.0 | 0.0 | 0.00 | 0.00 | 0.00 | 37 | 1022.6 |
| 20260831044604 | 66 | 0 | 0.0 | 0.0 | 0.00 | 0.00 | 0.00 | 37 | 1022.6 |
| 20260831043102 | 66 | 0 | 0.0 | 0.0 | 0.00 | 0.00 | 0.00 | 37 | 1022.6 |
| 20260831041601 | 66 | 0 | 0.0 | 0.0 | 0.00 | 0.00 | 0.00 | 36 | 1022.6 |
| 20260831040058 | 66 | 0 | 0.0 | 0.0 | 0.00 | 0.00 | 0.00 | 36 | 1022.6 |
| 20260831034601 | 66 | 0 | 0.0 | 0.0 | 0.00 | 0.00 | 0.00 | 37 | 1022.4 |
| 20260831033055 | 66 | 0 | 0.0 | 0.0 | 0.00 | 0.00 | 0.00 | 36 | 1022.2 |
| 20260831031600 | 66 | 0 | 0.0 | 0.0 | 0.00 | 0.00 | 0.00 | 37 | 1022.3 |
| 20260831030113 | 66 | 0 | 0.0 | 2.0 | 0.00 | 0.00 | 0.00 | 38 | 1022.1 |
| 20260831024639 | 67 | 269 | 1.0 | 4.0 | 0.00 | 0.00 | 0.00 | 38 | 1022.0 |
| 20260831023101 | 67 | 263 | 2.0 | 4.0 | 0.00 | 0.00 | 0.00 | 37 | 1022.0 |